Location: Bellestar
(42.1093°N, 0.3621°W)
Time: 02:14:13
(UTC+00:00)

Daily predictions for brighter satellites

Satellite Brightness Start Highest point End
(mag) Time Altitude Azimuth Time Altitude Azimuth Time Altitude Azimuth
CZ-4C R/B 4.3 00:04:06 10° NW 00:07:28 30° NW 00:07:28 30° NW
SL-16 R/B 4.5 00:12:42 10° NNW 00:14:12 19° NNW 00:14:12 19° NNW
Cosmos 2360 Rocket 4.4 00:19:21 10° NNW 00:21:19 21° N 00:21:19 21° N
Cosmos 2333 Rocket 4.4 00:28:53 10° N 00:31:54 19° NNE 00:31:54 19° NNE
SL-16 R/B 3.7 01:14:23 39° NNE 01:14:23 39° NNE 01:18:33 10° N
Cosmos 2219 Rocket 4.0 01:19:07 10° NNW 01:21:51 27° N 01:21:51 27° N
COSMOS 2428 4.3 01:31:46 10° NNW 01:34:45 30° N 01:34:45 30° N
USA 267 4.5 01:36:07 10° ENE 01:40:21 31° E 01:40:21 31° E
ADEOS II 3.4 01:57:59 10° NNE 02:01:43 36° ENE 02:01:43 36° ENE
Resurs 1-4 Rocket 3.4 02:05:36 10° N 02:08:34 33° N 02:08:34 33° N
Cosmos 2333 Rocket 4.1 02:12:14 10° NNW 02:13:52 20° NNW 02:13:52 20° NNW
Meteor 1-27 Rocket 4.3 02:19:34 52° N 02:19:34 52° N 02:23:52 10° N
SJ 16-02 3.6 02:22:31 20° N 02:22:31 20° N 02:24:00 10° N
NOSS 3-2 (A) 4.2 02:23:25 40° ESE 02:23:25 40° ESE 02:28:58 10° NE
Timation 2 Rocket 4.2 02:25:35 74° NNW 02:25:35 74° NNW 02:32:09 10° NNE
Cosmos 2237 Rocket 2.9 02:23:32 10° NNW 02:29:06 52° ENE 02:31:12 34° ESE
CZ-2D R/B 3.4 02:25:06 10° N 02:28:34 33° NNW 02:28:34 33° NNW
CENTAUR R/B 4.0 02:32:14 22° SE 02:33:41 24° ESE 02:38:46 10° ENE
H-2A R/B 3.5 02:39:27 34° NNE 02:39:27 34° NNE 02:42:03 10° N
NOSS 0 Rocket 3.9 02:33:33 10° NNW 02:39:03 72° NNW 02:39:03 72° NNW
ARIANE 5 R/B 2.8 02:36:25 10° NNE 02:41:20 65° E 02:41:20 65° E
Cosmos 1634 Rocket 4.2 02:37:16 10° N 02:43:25 67° E 02:45:10 47° SE
Cosmos 2297 Rocket 2.3 02:47:42 67° ESE 02:47:52 67° ESE 02:53:30 10° NNE
Tsikada Rocket 4.0 02:49:39 67° WNW 02:49:39 67° WNW 02:55:58 10° N
CZ-2C R/B 4.4 02:46:36 10° NNE 02:50:01 31° E 02:50:01 31° E
NOSS 3-2 (C) 4.1 02:52:22 37° SE 02:53:33 41° ESE 02:59:24 10° NE
Cosmos 2219 3.1 02:54:02 83° WNW 02:54:02 83° WNW 02:59:48 10° NNE
SL-16 R/B 4.2 02:59:27 18° NW 02:59:27 18° NW 03:01:32 10° NW
IRS-P3 4.4 02:53:36 10° N 02:58:19 56° NW 02:58:19 56° NW
CZ-4B R/B 4.4 02:56:45 10° ESE 02:59:06 17° ENE 03:01:28 10° NNE
STARLINK-1031 4.4 03:01:20 52° ENE 03:01:20 52° ENE 03:04:37 10° NE
STARLINK-1033 4.2 03:06:58 55° ENE 03:06:58 55° ENE 03:10:15 10° NE
Sich 1 Rocket 4.3 03:08:54 10° N 03:13:10 50° E 03:15:29 25° SE
Cosmos 2227 Rocket 2.1 03:13:13 66° SSW 03:14:04 86° WNW 03:19:46 10° NNE
BREEZE-M DEB (TANK) 3.0 03:16:35 45° ESE 03:16:35 45° ESE 03:18:27 10° ENE
STARLINK-1024 3.8 03:16:31 67° NNE 03:16:31 67° NNE 03:20:12 10° NE
Cosmos 372 Rocket 4.0 03:16:07 62° WNW 03:16:15 63° WNW 03:21:26 10° NNE
STARLINK-1035 3.7 03:21:18 70° N 03:21:18 70° N 03:25:10 10° NE
USA 267 3.3 03:18:48 10° NE 03:25:18 68° NW 03:27:42 41° WSW
STARLINK-1032 3.7 03:26:06 68° NNW 03:26:06 68° NNW 03:30:10 10° NE
ATLAS 3B R/B 3.8 03:24:01 15° S 03:28:51 37° ESE 03:34:51 10° NE
Lacrosse 5 rocket 3.8 03:28:24 11° NNW 03:29:33 12° NNW 03:31:01 10° N
BREEZE-M DEB 4.2 03:28:19 44° SW 03:30:17 78° SE 03:49:08 10° ENE
STARLINK-1011 3.7 03:30:52 63° NW 03:31:00 63° NNW 03:35:07 10° NE
Cosmos 1980 3.9 03:25:55 10° NW 03:31:04 47° W 03:31:04 47° W
Cosmos 2279 Rocket 3.9 03:27:11 10° N 03:33:27 82° W 03:39:41 10° S
Landsat 5 4.1 03:35:46 36° NW 03:35:46 36° NW 03:38:17 10° NNW
STARLINK-1036 3.8 03:35:38 56° NW 03:35:58 58° NNW 03:40:04 10° NE
RUBIN 8/PSLV 4.4 03:33:34 10° N 03:37:52 82° WNW 03:38:49 54° SSW
STARLINK-1044 3.9 03:40:27 49° WNW 03:40:59 54° NNW 03:45:04 10° NE
ADEOS II 3.2 03:38:11 10° N 03:42:26 26° WNW 03:42:39 25° WNW
Cosmos 1048 Rocket 3.9 03:38:45 10° NNW 03:44:05 70° WSW 03:49:25 10° S
STARLINK-1047 4.0 03:45:13 44° WNW 03:45:59 50° NNW 03:50:01 10° NE
STARLINK-1037 4.1 03:46:14 42° WNW 03:47:01 49° NNW 03:51:04 10° NE
SAR-Lupe-4 4.2 03:48:10 39° NW 03:48:10 39° NW 03:50:44 10° NNW
STARLINK-1042 4.4 03:46:25 33° S 03:47:40 43° SE 03:51:36 10° ENE
Cosmos 1900 4.4 03:46:52 43° WSW 03:48:09 58° NW 03:52:59 10° NNE
SL-16 R/B 2.2 03:42:43 10° NNW 03:48:25 83° ENE 03:54:06 10° SSE
USA 238 DEB 3.9 03:45:36 33° WSW 03:48:28 55° NW 03:55:16 10° NNE
USA 238 3.9 03:45:40 33° WSW 03:48:34 56° NW 03:55:23 10° NNE
Cosmos 2082 3.7 03:47:20 33° SW 03:49:58 75° WNW 03:55:44 10° NNE
Cosmos 1125 Rocket 3.5 03:49:30 36° SW 03:51:36 64° WNW 03:56:54 10° NNE
STARLINK-1056 4.3 03:51:10 32° S 03:52:35 47° SE 03:56:34 10° ENE
Geosat 4.2 03:49:38 10° NNE 03:54:41 70° ESE 03:58:15 19° SSW
Cosmos 1263 4.0 03:54:55 68° SW 03:55:13 79° W 03:58:13 10° N
Cosmos 1782 Rocket 4.1 03:52:00 10° NNW 03:55:49 35° W 03:55:49 35° W
STARLINK-1059 4.3 03:54:49 34° WNW 03:56:00 43° NNW 03:59:59 10° NE
STARLINK-1054 4.1 03:55:57 32° SSW 03:57:33 52° SE 04:01:35 10° ENE
Meteor 1-19 Rocket 4.3 03:55:09 30° SW 03:57:45 53° WNW 04:03:10 10° N
USA 234 3.3 03:52:14 10° SE 03:58:46 80° NE 04:05:20 10° NW
IDEFIX/ARIANE 42P 2.7 03:54:55 10° N 04:00:00 56° WNW 04:02:46 26° SW
STARLINK-1057 4.4 03:59:35 30° WNW 04:00:59 41° NNW 04:04:56 10° NE
Cosmos 2180 Rocket 4.5 03:55:41 10° NNW 04:01:48 63° W 04:07:59 10° S
STARLINK-1062 4.0 04:00:44 30° SSW 04:02:31 57° SE 04:06:35 10° ENE
Cosmos 1975 3.4 04:00:55 10° NNW 04:04:36 35° W 04:04:57 34° WSW
Okean 1-7 4.4 04:05:58 22° WNW 04:06:01 22° WNW 04:09:30 10° NNW
COBE Rocket 4.1 04:03:24 19° SSW 04:06:25 43° W 04:10:55 10° NNW
BREEZE M DEB (TANK) 2.4 04:06:15 42° NW 04:06:37 47° NNW 04:09:56 10° NE
Cosmos 1515 4.4 04:06:47 31° W 04:07:02 31° WNW 04:10:29 10° NNW
STARLINK-1053 3.9 04:05:32 29° SSW 04:07:30 63° SE 04:11:36 10° ENE
Meteor 1-4 Rocket 2.8 04:07:02 13° S 04:10:23 75° E 04:14:09 10° NNE
STARLINK-1061 3.8 04:10:18 27° SW 04:12:27 69° SE 04:16:34 10° ENE
Cosmos 2237 Rocket 3.2 04:08:24 10° NW 04:12:45 23° W 04:12:49 23° WSW
CBERS 1 LM4 rocket 4.4 04:08:47 10° N 04:13:41 68° WNW 04:18:15 13° SSW
NOSS 3-2 (A) 4.1 04:10:49 22° W 04:14:01 39° NW 04:20:07 10° NNE
Cosmos 967 Rocket 4.5 04:09:43 10° NNW 04:16:14 87° WSW 04:22:37 10° SSE
Cosmos 1689 Rocket 2.0 04:14:25 10° SSE 04:17:25 87° ENE 04:20:26 10° NNW
STARLINK-1067 3.7 04:15:06 25° SW 04:17:25 75° SE 04:21:35 10° NE
ARIANE 5 R/B 4.2 04:16:51 10° NNW 04:20:11 17° WNW 04:21:41 16° W
ATLAS 5 CENTAUR R/B 2.6 04:15:14 10° SSW 04:20:41 42° SE 04:23:06 10° ENE
Cosmos 389 Rocket 3.4 04:20:34 26° WSW 04:21:32 31° WNW 04:24:44 10° N
STARLINK-1058 3.6 04:19:53 23° SW 04:22:25 82° SE 04:26:34 10° NE
CENTAUR R/B 2.7 04:19:25 20° SW 04:23:38 60° NW 04:30:33 10° NNE
ADEOS 3.5 04:18:46 10° NNE 04:24:01 82° WNW 04:29:13 10° SSW
CZ-2C R/B 4.3 04:21:25 10° NNW 04:24:27 21° WNW 04:25:26 19° W
MSX 4.0 04:20:26 10° N 04:26:02 53° WNW 04:31:36 10° SW
ATLAS 5 CENTAUR R/B 3.1 04:20:37 10° NNW 04:26:19 58° NE 04:32:52 10° SE
Cosmos 2263 Rocket 3.2 04:21:08 10° S 04:26:33 48° ESE 04:32:00 10° NE
STARLINK-1043 3.6 04:24:37 21° SW 04:27:20 89° SSE 04:31:30 10° NE
STARLINK-1065 3.6 04:25:35 20° SW 04:28:20 89° WNW 04:32:29 10° NE
Cosmos 1674 Rocket 3.5 04:24:04 10° S 04:28:29 82° W 04:32:53 10° N
CZ-4B R/B 2.4 04:28:54 15° SSW 04:31:12 28° W 04:34:16 10° NW
Cosmos 2297 Rocket 3.7 04:29:31 14° W 04:32:26 21° NW 04:36:38 10° N
Cosmos 1544 4.4 04:29:46 10° NW 04:32:26 20° W 04:33:02 19° WSW
Meteor 1-31 Rocket 3.6 04:28:43 10° NNE 04:32:36 54° E 04:36:26 10° S
Meteor 2-4 Rocket 4.2 04:28:25 11° SW 04:33:48 43° WNW 04:39:25 10° N
STARLINK-1063 3.6 04:34:11 17° WSW 04:37:18 78° NW 04:41:28 10° NE
SJ-6F 4.4 04:35:02 10° N 04:39:11 77° WNW 04:43:20 10° SSW
STARLINK-1064 3.7 04:38:59 15° WSW 04:42:18 71° NW 04:46:27 10° NE
NOSS 3-2 (C) 4.2 04:39:50 14° WSW 04:44:27 38° NW 04:50:34 10° NNE
CZ-4B R/B 3.9 04:42:44 10° NNE 04:46:41 81° E 04:50:26 10° S
PSLV R/B 3.9 04:42:57 10° S 04:47:09 75° WSW 04:51:22 10° NNW
STARLINK-1041 3.7 04:43:46 14° WSW 04:47:16 66° NW 04:51:25 10° NE
PAYLOAD A 4.4 04:42:47 10° N 04:47:58 47° WNW 04:53:00 10° SW
CZ-2C R/B 2.5 04:44:27 10° N 04:48:52 50° WNW 04:53:17 10° SSW
Cosmos 1300 Rocket 4.5 04:48:24 10° NNW 04:52:00 26° W 04:55:36 10° SW
STARLINK-1038 3.8 04:48:33 12° WSW 04:52:16 61° NNW 04:56:23 10° NE
Okean 2 Rocket 4.3 04:49:24 10° NW 04:52:55 22° W 04:56:24 10° SW
Cosmos 1818 3.7 04:47:39 10° NW 04:52:58 55° WSW 04:58:14 10° SSE
ALOS 3.2 04:48:40 10° NNE 04:53:15 52° E 04:57:48 10° S
Cosmos 2151 Rocket 4.3 04:50:09 10° NNW 04:54:01 31° W 04:57:52 10° SSW
Cosmos 2227 4.2 04:51:34 10° SSW 04:57:12 78° WNW 05:02:51 10° NNE
STARLINK-1046 3.9 04:53:20 11° WSW 04:57:15 56° NNW 05:01:21 10° NE
ATLAS CENTAUR R/B 2.8 04:56:40 10° NW 04:57:43 13° NNW 04:58:58 10° N
Cosmos 2227 Rocket 4.0 04:55:46 10° W 04:59:00 15° NW 05:02:15 10° N
Cosmos 1092 Rocket 4.2 04:55:11 10° SSW 05:01:20 52° WNW 05:07:30 10° N
Meteor PRIRODA 4.1 04:58:00 10° NNE 05:01:40 67° ESE 05:05:18 10° S
STARLINK-1039 4.0 04:58:11 10° WSW 05:02:14 52° NNW 05:06:18 10° NE
Cosmos 1766 4.1 04:58:42 10° N 05:02:32 55° E 05:06:20 10° SSE
Cosmos 1867 3.6 04:59:11 10° SW 05:04:36 74° NW 05:10:05 10° NNE
SeaSat 1 2.7 05:01:51 10° S 05:06:34 45° WSW 05:11:18 10° NW
BREEZE-M DEB (TANK) 4.2 05:03:54 10° W 05:06:40 17° SW 05:09:35 10° S
STARLINK-1045 4.1 05:03:12 10° WSW 05:07:13 48° NNW 05:11:15 10° NE
USA 267 4.5 05:02:05 10° NE 05:07:36 30° NNW 05:13:07 10° WNW
Cosmos 1378 Rocket 4.0 05:04:20 10° SSW 05:08:24 39° WNW 05:12:31 10° N
CZ-4B R/B 3.1 05:04:25 10° N 05:08:44 76° WNW 05:13:11 10° SSW
Cosmos 1943 3.4 05:03:11 10° NNW 05:08:55 83° ENE 05:14:37 10° SSE
ADEOS Rocket 4.4 05:02:11 10° SE 05:09:45 57° ENE 05:16:59 10° N
SKYMED 2 3.9 05:06:32 10° SSE 05:10:51 74° ENE 05:15:12 10° N
Cosmos 1455 Rocket 4.4 05:06:50 10° N 05:11:08 47° ENE 05:15:26 10° SSE
Meteor 2-13 Rocket 4.4 05:05:45 10° S 05:11:48 81° W 05:17:54 10° N
